Flag for U.S.A. Weather past 2 weeks in Tampa, Florida, U.S.A.

82 °F

Scattered clouds.

Feels Like: 83 °F
Forecast: 64 / 81 °F
Wind: 13 mph from Northeast

Location: Tampa, Peter O Knight Airport

Current Time: Nov 28, 2015 at 2:35:38 PM

Latest Report: Nov 28, 2015 at 2:15 PM

Visibility: 10 mi

Pressure: 30.12 "Hg

Humidity: 48%

Dew point: 61 °F

Location of TampaLocation

Historic Weather in Tampa — Graph


Tampa temperature yesterday

Maximum temperature yesterday: 86 °F (at 1:35 PM)
Minimum temperature yesterday: 68 °F (at 1:15 AM)
Average temperature yesterday: 74 °F

Past Weeks' High & Low Weather Summary

High90 °F (Nov 18, 2:15 PM)100% (Nov 19, 7:55 PM)30.38 "Hg (Nov 19, 7:55 PM)
Low50 °F (Nov 23, 6:55 AM)27% (Nov 23, 1:15 PM)29.83 "Hg (Nov 22, 2:55 AM)
Average73 °F74%30.12 "Hg
* Reported Nov 13 1:15 PM — Nov 28 1:35 PM, Tampa, Weather by CustomWeather, © 2015

Note: Actual official high and low records may vary slightly from our data, if they occured in-between our weather recording intervals... More about our weather records


Tampa weather history for previous 24 hours

Time TempWeatherWind HumidityBarometerVisibility
1:35 PM
Sat, Nov 28
82 °FSunny.13 mph48%30.13 "Hg10 mi
1:15 PM82 °FScattered clouds.10 mph51%30.14 "Hg10 mi
12:55 PM81 °FScattered clouds.7 mph54%30.15 "Hg10 mi
12:35 PM81 °FSunny.12 mph54%30.17 "Hg10 mi
12:15 PM81 °FSunny.12 mph54%30.18 "Hg10 mi
11:55 AM81 °FSunny.12 mph54%30.18 "Hg10 mi
11:35 AM79 °FSunny.9 mph61%30.19 "Hg10 mi
10:55 AM77 °FSunny.9 mph65%30.20 "Hg10 mi
10:35 AM77 °FSunny.10 mph69%30.20 "Hg10 mi
10:15 AM73 °FSunny.10 mph74%30.21 "Hg10 mi
9:55 AM73 °FSunny.8 mph74%30.20 "Hg10 mi
9:35 AM72 °FSunny.12 mph83%30.20 "Hg10 mi
9:15 AM72 °FScattered clouds.13 mph78%30.20 "Hg10 mi
8:55 AM70 °FPartly sunny.13 mph88%30.20 "Hg10 mi
8:35 AM68 °FPartly sunny.7 mph94%30.20 "Hg10 mi
8:15 AM68 °FMostly cloudy.12 mph94%30.20 "Hg10 mi
7:55 AM68 °FLow clouds.10 mph88%30.19 "Hg10 mi
7:35 AM66 °FLow clouds.8 mph94%30.19 "Hg10 mi
7:15 AM66 °FLow clouds.9 mph94%30.19 "Hg10 mi
6:55 AM66 °FLow clouds.9 mph94%30.19 "Hg10 mi
6:35 AM64 °FLow clouds.9 mph100%30.19 "Hg10 mi
6:15 AM64 °FLow clouds.8 mph100%30.18 "Hg10 mi
5:55 AM64 °FPassing clouds.9 mph94%30.17 "Hg10 mi
5:35 AM64 °FPassing clouds.8 mph100%30.17 "Hg10 mi
4:55 AM64 °FClear.7 mph100%30.17 "Hg10 mi
4:35 AM64 °FClear.9 mph100%30.17 "Hg10 mi
4:15 AM64 °FClear.8 mph100%30.17 "Hg10 mi
3:55 AM64 °FClear.8 mph100%30.17 "Hg10 mi
3:35 AM66 °FPassing clouds.8 mph94%30.17 "Hg10 mi
3:15 AM66 °FPassing clouds.10 mph94%30.18 "Hg10 mi
2:55 AM66 °FClear.10 mph94%30.18 "Hg10 mi
1:35 AM68 °FClear.13 mph88%30.19 "Hg10 mi
1:15 AM68 °FClear.9 mph88%30.19 "Hg10 mi
12:55 AM68 °FClear.10 mph88%30.19 "Hg10 mi
12:35 AM68 °FClear.10 mph88%30.20 "Hg10 mi
11:55 PM
Fri, Nov 27
68 °FClear.8 mph88%30.21 "Hg10 mi
11:35 PM70 °FClear.8 mph83%30.22 "Hg10 mi
11:15 PM70 °FClear.8 mph83%30.22 "Hg10 mi
10:55 PM70 °FClear.6 mph83%30.22 "Hg10 mi
10:35 PM70 °FClear.8 mph83%30.22 "Hg10 mi
10:15 PM70 °FClear.10 mph83%30.22 "Hg10 mi
9:55 PM70 °FClear.9 mph83%30.22 "Hg10 mi
9:35 PM70 °FClear.9 mph78%30.22 "Hg10 mi
9:15 PM72 °FClear.7 mph73%30.22 "Hg10 mi
8:55 PM72 °FClear.6 mph73%30.23 "Hg10 mi
8:35 PM72 °FClear.6 mph78%30.23 "Hg10 mi
8:15 PM73 °FClear.8 mph74%30.22 "Hg10 mi
7:55 PM73 °FClear.9 mph74%30.22 "Hg10 mi
7:35 PM73 °FClear.12 mph74%30.21 "Hg10 mi
6:55 PM75 °FClear.9 mph69%30.19 "Hg10 mi
6:35 PM75 °FPassing clouds.12 mph65%30.19 "Hg10 mi
5:55 PM77 °FClear.9 mph61%30.18 "Hg10 mi
5:35 PM77 °FClear.10 mph61%30.18 "Hg10 mi
5:15 PM79 °FSunny.16 mph58%30.18 "Hg10 mi
4:55 PM79 °FSunny.13 mph58%30.17 "Hg10 mi
4:35 PM81 °FSunny.14 mph54%30.17 "Hg10 mi
3:55 PM82 °FSunny.14 mph51%30.17 "Hg10 mi
3:35 PM82 °FSunny.13 mph51%30.18 "Hg10 mi
3:15 PM82 °FScattered clouds.16 mph51%30.18 "Hg10 mi
2:55 PM84 °FScattered clouds.14 mph45%30.18 "Hg10 mi
2:35 PM84 °FSunny.15 mph45%30.19 "Hg10 mi
2:15 PM82 °FSunny.14 mph48%30.19 "Hg10 mi
Weather by CustomWeather, © 2015

See weather overviewHow to use our weather pages